Overview Statistics Trail Chart Weather Telemetry Raw packets
 

This is the latest recevied weather packets stored in our database for station/object HB9FHL-13. If no packets are shown the sender has not sent any weather packets the latest 10 day(s).

<< 50 51 52 53 54 55 56 >>
Time Temp. Humidity Pressure Rain* Wind** Luminosity Snow
1788376806 20° C - 1024.3 hPa 0 mm - - -
1788376206 21.11° C - 1023 hPa 0 mm - - -
1788375904 20.56° C - 1024.2 hPa 0 mm - - -
1788375604 20.56° C - 1024.1 hPa 0 mm - - -
1788375302 21.11° C - 1025.6 hPa 0 mm - - -
1788375002 20.56° C - 1021.2 hPa 0 mm - - -
1788374701 21.11° C - 1022.7 hPa 0 mm - - -
1788374401 21.11° C - 1023.3 hPa 0 mm - - -
1788374100 21.11° C - 1022.8 hPa 0 mm - - -
1788373800 21.11° C - 1024.6 hPa 0 mm - - -
1788373499 20.56° C - 1024.6 hPa 0 mm - - -
1788373199 20.56° C - 1024.4 hPa 0 mm - - -
1788372898 21.67° C - 1022.7 hPa 0 mm - - -
1788372598 21.11° C - 1024.3 hPa 0 mm - - -
1788372297 21.11° C - 1023.6 hPa 0 mm - - -
1788372001 21.11° C - 1022.8 hPa 0 mm - - -
1788371694 21.11° C - 1025 hPa 0 mm - - -
1788371394 21.11° C - 1023.6 hPa 0 mm - - -
1788371093 22.22° C - 1024.4 hPa 0 mm - - -
1788370791 22.22° C - 1021 hPa 0 mm - - -
1788370491 21.67° C - 1023.7 hPa 0 mm - - -
1788370190 21.11° C - 1024.6 hPa 0 mm - - -
1788369889 21.67° C - 1023.2 hPa 0 mm - - -
1788369287 21.67° C - 1023.8 hPa 0 mm - - -
1788368986 21.67° C - 1023.1 hPa 0 mm - - -

* Rain since midnight (hover to see other rain measurements)
** Current wind speed in m/s (hover to see current wind gust speed)